Weather observations for the past three days for
Moultrie, Moultrie Municipal Airport
Imperial (Metric)
Date Time (edt) Wind (mph) Vis. (mi.) Weather Sky Cond. Temperature (ºF) Relative Humidity Wind Chill (°F) Heat Index (°F) Pressure Precipitation (in)
Air Dwpt 6 hour altimeter (in) sea level (mb) 1 hr 3 hr 6 hr
Max. Min.
12 13:15 Vrbl 5 10.00 Mostly Cloudy SCT033 SCT042 BKN055 87.3 74.1 65% 96 29.94 0.0
12 12:55 Calm 9.00 Partly Cloudy SCT033 SCT330 88 74.1 64% 97 29.94 0.0
12 12:35 Vrbl 5 10.00 A Few Clouds FEW027 88.2 74.7 64% 98 29.94 0.0
12 12:15 SE 8 10.00 A Few Clouds FEW025 86.4 74.8 69% 95 29.95 0.0
12 11:55 SE 3 10.00 Mostly Cloudy BKN021 85.5 75.6 72% 95 29.95 0.0
12 11:35 E 5 10.00 Overcast OVC019 84 75.7 76% 93 29.96 0.0
12 11:15 E 5 10.00 Overcast OVC017 83.3 75.6 78% 91 29.96 0.0
12 10:35 Vrbl 5 10.00 Overcast OVC014 81.3 75.7 83% 88 29.96 0.0
12 10:15 SE 5 10.00 Overcast OVC014 79.7 75.2 86% 84 29.96 0.0
12 09:55 E 7 10.00 Overcast OVC012 79.7 75.4 87% 84 29.95 0.0
12 09:35 SE 5 9.00 Overcast OVC009 78.3 75.6 91% 81 29.95 0.0
12 09:15 SE 6 9.00 Overcast OVC007 77.4 76.1 96% 79 29.95 0.0
12 08:55 E 6 7.00 Overcast OVC003 74.8 74.8 100% 29.94 0.0
12 08:35 SE 8 6.00 Fog/Mist OVC002 74.3 74.3 100% 29.94 0.0
12 08:15 E 6 0.50 Fog VV002 73.9 73.9 100% 29.94 0.0
12 07:55 E 5 0.50 Fog VV002 73.6 73.6 100% 29.94 0.0
12 07:35 Calm 0.25 Fog VV002 73.2 73.2 100% 29.93 0.0
12 07:15 E 3 1.50 Fog/Mist OVC002 72.9 72.9 100% 29.93 0.0
12 06:55 Calm 7.00 Partly Cloudy SCT004 72.3 72.3 100% 29.92 0.0
12 06:35 Calm 7.00 Fair CLR 71.6 71.6 100% 29.91 0.0
12 06:15 E 3 9.00 Fair CLR 71.8 71.8 100% 29.91 0.0
12 05:55 E 3 10.00 Fair CLR 71.4 71.2 99% 29.9 0.0
12 05:35 E 3 10.00 Fair CLR 71.8 70.9 97% 29.89 0.0
12 05:15 E 3 10.00 Fair CLR 72 70.7 96% 29.9 0.0
12 04:55 NE 3 10.00 Fair CLR 72.3 70.7 95% 29.89 0.0
12 04:35 E 3 10.00 Fair CLR 72.5 70.3 93% 29.89 0.0
12 04:15 NE 3 10.00 Fair CLR 72.5 69.8 91% 29.88 0.0
12 03:55 NE 5 10.00 Fair CLR 72.7 69.1 89% 29.88 0.0
12 03:15 NE 3 10.00 Fair CLR 72.7 67.1 83% 29.88 0.0
12 02:55 NE 6 10.00 Fair CLR 72.7 65.7 79% 29.88 0.0
12 02:35 Calm 10.00 Fair CLR 72.9 64.9 76% 29.89 0.0
12 02:15 E 5 10.00 A Few Clouds FEW260 72.3 65.5 79% 29.89 0.0
12 01:55 N 3 10.00 Partly Cloudy SCT260 73.2 65.5 77% 29.89 0.0
12 01:35 Calm 10.00 A Few Clouds FEW300 72 65.8 81% 29.9 0.0
12 01:15 E 5 9.00 A Few Clouds FEW300 71.4 67.1 86% 29.91 0.0
12 00:55 Calm 10.00 Fair CLR 73.4 67.8 83% 29.91 0.0
12 00:35 Calm 10.00 Partly Cloudy FEW270 SCT290 73.4 67.8 83% 29.91 0.0
12 00:15 Calm 10.00 Overcast SCT270 OVC300 73.8 67.3 80% 29.9 0.0
11 23:55 Calm 10.00 Overcast OVC300 74.7 67.3 78% 29.9 0.0
11 23:35 Calm 10.00 Overcast OVC300 74.8 66.6 76% 29.9 0.0
11 23:15 Calm 10.00 Overcast OVC300 75.6 66 72% 77 29.89 0.0
11 22:55 Calm 10.00 Overcast OVC300 75.6 67.8 77% 77 29.89 0.0
11 22:35 Calm 10.00 Mostly Cloudy BKN300 76.6 66.2 70% 78 29.88 0.0
11 22:15 Calm 10.00 A Few Clouds FEW300 77.9 64.8 64% 80 29.88 0.0
11 21:55 N 3 10.00 Fair CLR 77.7 65.3 66% 80 29.87 0.0
11 21:35 Calm 10.00 Fair CLR 79 64.8 62% 81 29.86 0.0
11 21:15 N 3 10.00 Fair CLR 80.4 64.4 58% 82 29.86 0.0
11 20:55 N 3 10.00 Fair CLR 81.1 63.9 56% 83 29.86 0.0
11 20:35 N 6 10.00 Fair CLR 82.6 63.3 52% 84 29.85 0.0
11 19:55 N 6 10.00 A Few Clouds FEW300 86 62.4 45% 87 29.84 0.0
11 19:35 N 8 10.00 Fair CLR 87.1 62.4 44% 88 29.84 0.0
11 19:15 N 7 10.00 Fair CLR 88 62.8 43% 89 29.84 0.0
11 18:55 N 6 10.00 A Few Clouds FEW320 89.1 61 39% 89 29.84 0.0
11 18:35 N 9 10.00 A Few Clouds FEW320 88.9 60.8 39% 89 29.84 0.0
11 18:15 N 7 10.00 Fair CLR 89.2 61.3 39% 89 29.83 0.0
11 17:55 N 9 10.00 A Few Clouds FEW320 89.6 61.7 39% 90 29.83 0.0
11 17:35 N 5 10.00 A Few Clouds FEW320 89.2 61.3 39% 89 29.84 0.0
11 17:15 NE 6 10.00 Fair CLR 91.8 61.9 37% 92 29.84 0.0
11 16:55 Calm 10.00 Fair CLR 89.8 61.5 39% 90 29.84 0.0
11 16:35 Calm 10.00 A Few Clouds FEW360 90.7 61.5 38% 91 29.84 0.0
11 16:15 N 8 10.00 A Few Clouds FEW320 91.9 62.1 37% 93 29.84 0.0
11 15:55 Vrbl 3 10.00 Fair CLR 89.2 61.5 40% 89 29.85 0.0
11 15:35 NW 5 10.00 Fair CLR 90.5 61.3 38% 91 29.85 0.0
11 15:15 NE 5 10.00 Fair CLR 90.7 61.5 38% 91 29.86 0.0
11 14:55 N 6 10.00 Partly Cloudy FEW260 SCT330 89.4 61.3 39% 90 29.86 0.0
11 14:35 N 9 10.00 Partly Cloudy FEW260 SCT340 SCT370 89.8 61.2 38% 90 29.86 0.0
11 14:15 Vrbl 5 10.00 Mostly Cloudy FEW260 BKN330 88.9 61 39% 89 29.87 0.0
11 13:55 N 8 10.00 Mostly Cloudy FEW240 SCT310 SCT330 BKN370 88.9 60.6 39% 89 29.87 0.0
11 13:35 N 8 10.00 Partly Cloudy FEW260 SCT320 88.5 60.4 39% 88 29.87 0.0
11 13:15 N 6 10.00 Partly Cloudy FEW250 SCT300 SCT320 SCT350 87.1 59.9 40% 87 29.88 0.0
11 12:55 NE 8 10.00 Partly Cloudy FEW046 SCT340 SCT360 86.7 59.5 40% 86 29.88 0.0
11 12:35 E 7 10.00 Partly Cloudy FEW045 SCT350 SCT380 86.9 60.1 41% 87 29.88 0.0
11 12:15 E 8 10.00 Partly Cloudy SCT043 SCT350 86.9 59.5 40% 86 29.89 0.0
11 11:55 NE 9 10.00 Overcast OVC043 85.6 59.4 41% 85 29.89 0.0
11 11:35 NE 8 10.00 Mostly Cloudy BKN044 85.6 60.1 42% 85 29.89 0.0
11 11:15 N 8 10.00 A Few Clouds FEW370 85.3 61 44% 85 29.88 0.0
11 10:55 NE 10 10.00 A Few Clouds FEW380 83.8 60.6 46% 84 29.88 0.0
11 10:35 NE 13 10.00 Fair CLR 84.2 60.4 45% 84 29.88 0.0
11 10:15 N 10 10.00 A Few Clouds FEW360 83.8 60.6 46% 84 29.88 0.0
11 09:55 NE 8 10.00 Fair CLR 82.4 62.4 51% 83 29.88 0.0
11 09:35 NE 10 10.00 A Few Clouds FEW330 81 63.9 56% 82 29.88 0.0
11 09:15 N 6 10.00 Fair CLR 79.3 67.5 67% 82 29.88 0.0
11 08:35 N 5 10.00 Fair CLR 76.1 67.8 76% 77 29.87 0.0
11 08:15 N 5 10.00 Fair CLR 75 69.1 82% 75 29.87 0.0
11 07:55 N 3 10.00 Fair CLR 74.1 70.2 88% 29.87 0.0
11 07:35 N 3 9.00 Fair CLR 73.8 70.5 90% 29.86 0.0
11 07:15 N 5 10.00 Partly Cloudy SCT038 73.6 70.7 91% 29.86 0.0
11 06:55 N 6 10.00 Mostly Cloudy BKN037 73.4 71.4 94% 29.86 0.0
11 06:35 N 5 9.00 Partly Cloudy SCT036 72.9 72 97% 29.86 0.0
11 06:15 Calm 10.00 A Few Clouds FEW037 73.2 72.7 98% 29.86 0.0
11 05:55 Calm 10.00 Fair CLR 72.9 72.9 100% 29.85 0.0
11 05:35 Calm 9.00 Fair CLR 72.9 72.9 100% 29.85 0.0
11 05:15 Calm 9.00 Fair CLR 73.2 72.7 98% 29.84 0.0
11 04:55 Calm 10.00 Fair CLR 73.6 72.7 97% 29.83 0.0
11 04:35 Calm 10.00 Fair CLR 73 72.7 99% 29.83 0.0
11 04:15 Calm 10.00 Fair CLR 74.3 72.9 95% 29.83 0.0
11 03:55 Calm 10.00 A Few Clouds FEW140 74.7 72.7 94% 29.83 0.0
11 03:35 Calm 10.00 Fair CLR 74.3 72.9 95% 29.83 0.0
11 03:15 Calm 10.00 Fair CLR 75 72.9 93% 74 29.83 0.0
11 02:55 Calm 10.00 Fair CLR 75.6 72.7 91% 75 29.83 0.0
11 02:35 N 3 10.00 A Few Clouds FEW120 75.7 72.7 90% 75 29.83 0.0
11 02:15 N 3 10.00 Mostly Cloudy SCT075 BKN120 75.7 72.7 90% 75 29.83 0.0
11 01:55 Calm 10.00 Partly Cloudy FEW047 SCT070 75.9 72.5 89% 76 29.83 0.0
11 01:35 N 5 10.00 Mostly Cloudy BKN047 76.6 72.7 88% 78 29.83 0.0
11 01:15 Calm 10.00 Mostly Cloudy BKN046 76.8 73.2 89% 78 29.83 0.0
11 00:55 Calm 10.00 Partly Cloudy SCT046 76.6 73 89% 77 29.83 0.0
11 00:35 Calm 10.00 Mostly Cloudy SCT065 BKN080 77 72.1 85% 78 29.83 0.0
11 00:15 Calm 8.00 Overcast OVC070 77 72.7 87% 78 29.83 0.0
10 23:55 Calm 10.00 Overcast BKN070 OVC110 77.2 72.7 86% 79 29.83 0.0
10 23:35 Calm 10.00 Partly Cloudy SCT080 77 72.1 85% 78 29.83 0.0
10 23:15 Calm 10.00 Mostly Cloudy SCT080 BKN110 77 72.1 85% 78 29.82 0.0
10 22:55 NE 3 10.00 Mostly Cloudy BKN110 77.2 72.3 85% 79 29.82 0.0
10 22:35 N 3 10.00 A Few Clouds FEW110 77.5 72.1 84% 79 29.82 0.0
10 22:15 Calm 10.00 Fair CLR 78.6 71.2 78% 81 29.81 0.0
10 21:55 Calm 10.00 Partly Cloudy FEW037 SCT060 77.9 71.8 82% 80 29.81 0.0
10 21:35 NE 3 10.00 Mostly Cloudy FEW037 BKN060 78.6 71.8 80% 81 29.81 0.0
10 21:15 N 7 10.00 Partly Cloudy FEW230 SCT250 79 71.2 77% 82 29.81 0.0
10 20:55 SE 3 10.00 Partly Cloudy SCT230 SCT250 79.2 71.6 78% 82 29.8 0.0
10 20:35 E 3 9.00 Mostly Cloudy SCT065 BKN230 80.1 71.8 76% 84 29.8 0.0
10 20:15 E 5 10.00 Overcast BKN070 OVC210 81.3 72 73% 86 29.79 0.0
10 19:55 NE 7 10.00 Mostly Cloudy FEW070 BKN210 BKN240 82.9 71.6 69% 88 29.78 0.0
10 19:35 NE 8 10.00 Partly Cloudy FEW075 SCT240 83.3 71.4 68% 88 29.77 0.0
10 19:15 NE 8 10.00 Mostly Cloudy BKN075 BKN190 BKN240 83.7 71.4 67% 89 29.76 0.0
10 18:55 NE 8 9.00 Mostly Cloudy SCT070 SCT180 BKN240 BKN280 84.2 70.9 64% 89 29.76 0.0
10 18:35 NE 10 9.00 Mostly Cloudy BKN070 BKN230 85.8 71.2 62% 91 29.76 0.0
10 18:15 Vrbl 3 8.00 Mostly Cloudy BKN230 91.9 68.7 47% 97 29.76 0.0
10 17:55 W 5 10.00 Fair CLR 92.3 68.4 46% 97 29.76 0.0
10 17:35 W 7 10.00 Partly Cloudy SCT070 93.2 68 44% 98 29.76 0.0
10 17:15 W 6 10.00 A Few Clouds FEW350 93.6 68.4 44% 98 29.75 0.0
10 16:55 SW 9 10.00 Partly Cloudy FEW260 SCT360 95 67.6 41% 99 29.74 0.0
10 16:35 W 5 9.00 Partly Cloudy FEW060 SCT260 SCT310 SCT340 92.1 69.4 48% 97 29.75 0.0
10 16:15 W 7 10.00 Partly Cloudy FEW060 SCT340 92.3 69.6 48% 98 29.76 0.0
10 15:55 W 5 G 20 8.00 A Few Clouds FEW050 93.4 69.8 46% 99 29.76 0.0
10 15:35 W 7 10.00 Partly Cloudy SCT050 SCT370 94.3 70 45% 101 29.77 0.0
10 15:15 SW 10 9.00 A Few Clouds FEW049 93.2 70.9 48% 100 29.78 0.0
10 14:55 W 7 G 17 10.00 Partly Cloudy FEW049 SCT065 92.5 70.3 49% 99 29.79 0.0
10 14:35 W 9 9.00 A Few Clouds FEW050 92.8 70.9 49% 100 29.8 0.0
10 14:15 W 9 9.00 Partly Cloudy FEW049 SCT070 92.7 71.6 50% 100 29.81 0.0
10 13:55 W 10 9.00 Partly Cloudy FEW046 SCT270 93 71.8 50% 101 29.82 0.0
10 13:35 W 7 9.00 Mostly Cloudy SCT043 SCT080 SCT200 BKN240 BKN270 91.9 73 54% 101 29.83 0.0
10 13:15 Calm 0.00 Partly Cloudy SCT039 SCT280 90.3 72.5 56% 98 29.83 0.0
Date Time (edt) Wind (mph) Vis. (mi.) Weather Sky Cond. Air Dwpt Max. Min. Relative Humidity Wind Chill (°F) Heat Index (°F) altimeter (in) sea level (mb) 1 hr 3 hr 6 hr
6 hour
Temperature (ºF) Pressure Precipitation (in)